KEPLER-5 (AMIDALA)

Last updated on Thu Oct 29 2020 00:02:02 GMT+0000 (Coordinated Universal Time)

1 46498U 20068N 20302.38634983 -.00000059 00000-0 14527-6 0 9998 2 46498 97.6653 235.5500 0013510 144.6788 215.5335 15.02279855 4469
UTC large
Height (km)
Speed (km/s)
/
Latitude / Longitude
Inclination (degrees)
Orbital Period (minutes)
Azimuth
Elevation
Range (km)
Doppler Factor

Next 0 passes for location: London (51.5072 / 0.1276)

Sorry there are no passes over London.